[[{"header":{"parameterUnit":"m.s-1","parameterCategory":1,"la1":30.2991,"la2":30.254,"lo1":-89.0895,"lo2":-89.0444,"dy":0.0017,"dx":0.0017,"nx":28,"ny":28,"refTime":"2025-08-14T09:00:00:Z","depth":0,"parameterNumber":2,"parameterNumberName":"U-component_of_WINDS"},"data":[0,0,0,0,0,0,0,0,0,0,0,0,0,0,0,0,0,0,0,0,0,0,0,0,0,0,0,0,0,0,0,0,0,0,0,0,0,0,0,0,0,0,0,0,0,0,0,0,0,0,0,0,0,0,0,0,0,0,1.048,1.0481,0,1.0636,1.0638,1.064,1.0656,1.0655,1.0653,1.0651,1.0816,1.0822,1.0828,0,0,0,0,0,0,0,0,0,0,0,0,0,1.0199,1.0204,1.0479,1.0481,1.0483,1.0636,1.0638,1.064,1.0656,1.0655,1.0653,1.0651,1.0814,1.0821,1.0828,0,0,0,0,0,0,0,0,0,0,0,0,0,1.0334,1.0205,1.0479,1.051,1.0514,1.0635,1.0638,1.0641,1.0657,1.0654,1.0652,1.065,1.0812,1.082,1.0829,1.0932,0,0,1.0856,1.086,0,0,0,0,0,0,0,0,1.0327,1.0345,1.0503,1.0508,1.0513,1.0624,1.0599,1.0738,1.0657,1.0603,1.0651,1.0649,1.0754,1.0768,1.0803,1.0939,1.0946,1.0857,1.0862,1.0866,1.0868,0,0,0,0,0,0,0,1.0317,1.0338,1.0542,1.0506,1.0512,1.0517,1.0534,1.0626,1.069,1.0607,1.0609,1.0627,1.0757,1.0794,1.0807,1.0949,1.0856,1.0864,1.087,1.0873,1.1178,1.118,0,0,0,0,0,0,1.0302,1.033,1.0537,1.0546,1.0412,1.0524,1.0543,1.0591,1.0689,1.0702,1.0629,1.0627,1.078,1.0796,1.0812,1.0939,1.0866,1.0874,1.0879,1.1175,1.1178,1.1181,0,0,0,0,0,0,1.0296,1.032,1.053,1.0439,1.0466,1.0531,1.0586,1.0595,1.0633,1.0706,1.0718,1.0655,1.0779,1.08,1.0902,1.0945,1.0878,1.0886,1.1172,1.1176,1.118,1.1193,0,0,0,0,0,0,1.0287,1.0318,1.0356,1.0439,1.0471,1.0616,1.0588,1.06,1.0647,1.0647,1.0733,1.0745,1.0779,1.0888,1.091,1.0956,1.0893,1.1168,1.1174,1.1179,1.1189,1.1197,1.1204,0,0,0,0,0,1.0277,1.0355,1.0358,1.0383,1.052,1.0618,1.0636,1.0672,1.0651,1.0691,1.0738,1.0743,1.0936,1.0899,1.0923,1.0972,1.1166,1.1172,1.1178,1.1185,1.1195,1.1204,0,0,0,0,0,0,1.0277,1.0366,1.0371,1.0477,1.054,1.0621,1.0672,1.0681,1.0752,1.0748,1.0791,1.081,1.091,1.0951,1.0908,1.1077,1.1049,1.1061,1.1046,1.1056,1.1063,1.1052,1.09,0,0,0,0,0,1.0289,1.0359,1.0434,1.0521,1.0552,1.0607,1.0651,1.0672,1.0739,1.0766,1.0821,1.0887,1.0962,1.1011,1.1085,1.1195,1.1214,1.1241,1.1248,1.1254,1.1264,1.1324,1.1337,1.1202,1.1202,1.1202,0,0,1.0315,1.0372,1.0415,1.0522,1.0573,1.0647,1.0629,1.0708,1.0763,1.0779,1.0878,1.092,1.0996,1.1102,1.1151,1.1139,1.1305,1.1262,1.1266,1.1273,1.1332,1.1345,1.1356,1.1206,1.1206,1.1205,0,0,1.04,1.045,1.0528,1.0579,1.0656,1.0691,1.071,1.079,1.0818,1.0917,1.0931,1.0997,1.1127,1.1181,1.1225,1.1329,1.1337,1.1352,1.1392,1.1451,1.1462,1.1471,1.1509,1.1521,1.1362,1.1362,1.1362,0,1.0423,1.0533,1.0567,1.0645,1.0692,1.0708,1.0788,1.0836,1.0934,1.0966,1.0951,1.1114,1.1166,1.1285,1.131,1.1345,1.1369,1.1343,1.1457,1.1467,1.1477,1.1513,1.1527,1.1363,1.1363,1.1363,1.1363,0,1.0557,1.0633,1.0687,1.0779,1.0832,1.0911,1.0958,1.1008,1.1025,1.1062,1.1164,1.1227,1.1314,1.1344,1.1362,1.1465,1.1455,1.1448,1.1421,1.149,1.1525,1.1539,1.1365,1.1365,1.1364,1.1364,0,0,1.0647,1.0756,1.0775,1.0817,1.0903,1.0963,1.1042,1.1125,1.1168,1.1234,1.1302,1.1411,1.1405,1.1455,1.1479,1.1531,1.1609,1.1518,1.152,1.1532,1.1727,1.1732,1.1747,1.1614,1.1617,1.1619,1.1721,0,1.0742,1.0882,1.0915,1.1036,1.1107,1.1123,1.1192,1.1252,1.129,1.1356,1.1398,1.1474,1.146,1.149,1.1542,1.1589,1.1649,1.1582,1.1679,1.1682,1.1659,1.1765,1.1771,1.1864,1.1734,1.1737,1.1738,0,1.0872,1.0939,1.1066,1.1142,1.1173,1.1234,1.1313,1.1376,1.1445,1.1469,1.1524,1.1543,1.1627,1.1595,1.1712,1.1665,1.1707,1.1736,1.1741,1.1751,1.1715,1.1779,1.1894,1.1908,1.176,1.1758,1.1757,0,1.0924,1.1047,1.1139,1.1175,1.1265,1.1308,1.1348,1.1415,1.1463,1.1532,1.1563,1.1642,1.1685,1.1746,1.1786,1.1759,1.1899,1.1871,1.1922,1.1921,1.1951,1.1949,1.2074,1.1978,1.1977,1.1977,1.1977,0,1.1027,1.1104,1.1164,1.1221,1.1308,1.1345,1.1431,1.1472,1.1531,1.1596,1.1615,1.1677,1.1725,1.1793,1.1825,1.1917,1.1936,1.1958,1.1966,1.1957,1.1954,1.1985,1.198,1.1981,1.198,1.1979,1.1979,0,1.1101,1.1144,1.1245,1.1322,1.1343,1.1404,1.1471,1.1527,1.1564,1.1646,1.1668,1.1727,1.1808,1.1854,1.1956,1.1977,1.208,1.2084,1.2056,1.2059,1.2108,1.2102,1.2258,1.228,1.2168,1.2169,1.217,0,1.1163,1.1223,1.1306,1.135,1.139,1.1462,1.151,1.155,1.16,1.1683,1.1729,1.1811,1.1878,1.2007,1.206,1.2138,1.2145,1.2194,1.2157,1.2146,1.2146,1.2142,1.2148,1.22,1.2201,1.2202,1.2203,0,1.127,1.1288,1.1356,1.1432,1.1489,1.1551,1.1613,1.1649,1.1698,1.1754,1.1836,1.1888,1.1992,1.2073,1.2156,1.2198,1.2209,1.2214,1.223,1.2221,1.2202,1.2213,1.2073,1.221,1.221,1.2209,1.2209,1.2208,1.134,1.1394,1.146,1.1536,1.1586,1.1643,1.1699,1.1742,1.1811,1.1898,1.1917,1.2004,1.2072,1.2183,1.2228,1.2297,1.2288,1.2311,1.2317,1.2322,1.2324,1.2191,1.2312,1.2312,1.2312,1.2312,1.2312,0,1.1448,1.1491,1.156,1.1645,1.1704,1.1708,1.1776,1.1826,1.1902,1.1963,1.2029,1.2123,1.2202,1.226,1.2341,1.2385,1.2392,1.2405,1.2402,1.2412,1.2327,1.2305,1.2398,1.2398,1.2398,1.2398,1.2398,1.2398,1.1511,1.1601,1.1627,1.1743,1.1786,1.187,1.1909,1.1962,1.2011,1.2115,1.218,1.2217,1.2278,1.2363,1.2435,1.245,1.2479,1.2491,1.2507,1.2427,1.2418,1.2409,1.2389,1.2497,1.2497,1.2586,1.2587,1.2587]},{"header":{"parameterUnit":"m.s-1","parameterCategory":1,"la1":30.2991,"la2":30.254,"lo1":-89.0895,"lo2":-89.0444,"dy":0.0017,"dx":0.0017,"nx":28,"ny":28,"refTime":"2025-08-14T09:00:00:Z","depth":0,"parameterNumber":3,"parameterNumberName":"V-component_of_WINDS"},"data":[0,0,0,0,0,0,0,0,0,0,0,0,0,0,0,0,0,0,0,0,0,0,0,0,0,0,0,0,0,0,0,0,0,0,0,0,0,0,0,0,0,0,0,0,0,0,0,0,0,0,0,0,0,0,0,0,0,0,2.405,2.405,0,2.4066,2.4066,2.4067,2.4063,2.4063,2.4062,2.4062,2.4077,2.4077,2.4078,0,0,0,0,0,0,0,0,0,0,0,0,0,2.401,2.401,2.405,2.405,2.405,2.4066,2.4066,2.4067,2.4063,2.4063,2.4062,2.4062,2.4077,2.4077,2.4078,0,0,0,0,0,0,0,0,0,0,0,0,0,2.4027,2.4011,2.4049,2.405,2.405,2.4066,2.4066,2.4067,2.4063,2.4063,2.4062,2.4062,2.4076,2.4077,2.4078,2.4094,0,0,2.4081,2.4082,0,0,0,0,0,0,0,0,2.4026,2.4028,2.405,2.405,2.405,2.4062,2.4058,2.4076,2.4063,2.4058,2.4062,2.4062,2.4072,2.4073,2.4078,2.4094,2.4095,2.4082,2.4082,2.4083,2.4083,0,0,0,0,0,0,0,2.4024,2.4027,2.4056,2.405,2.405,2.4048,2.405,2.4061,2.4067,2.4059,2.4058,2.4061,2.4072,2.4077,2.4078,2.4095,2.4081,2.4082,2.4083,2.4083,2.4121,2.4121,0,0,0,0,0,0,2.4024,2.4026,2.4056,2.4057,2.4037,2.4049,2.4051,2.4059,2.4067,2.4068,2.4061,2.406,2.4075,2.4077,2.4078,2.4094,2.4083,2.4084,2.4084,2.412,2.4121,2.4121,0,0,0,0,0,0,2.4023,2.4026,2.4055,2.4041,2.4045,2.405,2.4059,2.4059,2.4064,2.4069,2.407,2.4065,2.4075,2.4077,2.4089,2.4095,2.4084,2.4085,2.412,2.4121,2.4121,2.4128,0,0,0,0,0,0,2.4022,2.4026,2.4033,2.4042,2.4046,2.4067,2.4059,2.406,2.4066,2.4065,2.4073,2.4073,2.4075,2.4088,2.409,2.4096,2.4086,2.4119,2.412,2.4121,2.4127,2.4129,2.413,0,0,0,0,0,2.402,2.4035,2.4034,2.4037,2.4055,2.4067,2.407,2.4071,2.4066,2.4073,2.4075,2.4073,2.4094,2.4089,2.4092,2.4098,2.4119,2.412,2.4121,2.4126,2.4128,2.413,0,0,0,0,0,0,2.4028,2.4036,2.4035,2.4053,2.406,2.4067,2.4075,2.4074,2.4081,2.408,2.4081,2.4082,2.4094,2.4097,2.4092,2.4111,2.4105,2.4107,2.4109,2.411,2.4112,2.411,2.4087,0,0,0,0,0,2.4032,2.4042,2.4048,2.4064,2.4067,2.407,2.4076,2.4076,2.4082,2.4085,2.4089,2.4094,2.4101,2.4106,2.4113,2.4127,2.4127,2.4132,2.4134,2.4135,2.4136,2.414,2.4142,2.4124,2.4124,2.4124,0,0,2.404,2.4045,2.4052,2.4065,2.407,2.4079,2.4073,2.4083,2.4089,2.4086,2.4098,2.41,2.4106,2.4118,2.4123,2.4121,2.414,2.4136,2.4137,2.4137,2.4141,2.4143,2.4144,2.4125,2.4125,2.4124,0,0,2.4058,2.4065,2.4077,2.4081,2.4088,2.409,2.4092,2.4099,2.4101,2.4112,2.4109,2.4115,2.4128,2.4131,2.4134,2.415,2.4147,2.4152,2.4159,2.4163,2.4164,2.4165,2.4168,2.417,2.4153,2.4153,2.4153,0,2.4067,2.4082,2.4083,2.4093,2.4097,2.4094,2.4104,2.4108,2.4117,2.412,2.4117,2.4131,2.4134,2.4146,2.4149,2.4152,2.4153,2.4151,2.4164,2.4165,2.4166,2.4169,2.4171,2.4153,2.4153,2.4153,2.4153,0,2.4091,2.41,2.4109,2.4116,2.4122,2.4132,2.4133,2.4137,2.4136,2.4137,2.4146,2.415,2.4157,2.4159,2.4159,2.4169,2.4167,2.4164,2.4158,2.4168,2.4171,2.4172,2.4154,2.4154,2.4154,2.4153,0,0,2.4117,2.4123,2.4126,2.4128,2.4133,2.414,2.4148,2.4154,2.4157,2.4162,2.4168,2.4177,2.4173,2.4177,2.4176,2.4179,2.4188,2.4175,2.4175,2.4176,2.4196,2.4198,2.42,2.4186,2.4186,2.4186,2.4195,0,2.4134,2.415,2.4149,2.4163,2.417,2.4165,2.4172,2.4175,2.4175,2.418,2.418,2.4186,2.4181,2.4183,2.4186,2.4186,2.4192,2.4186,2.4189,2.4189,2.4187,2.4202,2.4204,2.4213,2.4197,2.4197,2.4197,0,2.4158,2.4163,2.4177,2.4178,2.4181,2.4187,2.4191,2.4196,2.4198,2.4198,2.42,2.4197,2.4203,2.4197,2.4203,2.4199,2.42,2.42,2.42,2.42,2.4194,2.4201,2.4216,2.4217,2.4199,2.4199,2.4199,0,2.4172,2.4182,2.4191,2.4193,2.4196,2.42,2.4201,2.4202,2.4205,2.4208,2.4209,2.4212,2.4213,2.4215,2.4212,2.4209,2.4218,2.4212,2.4216,2.4216,2.4218,2.4218,2.4233,2.422,2.422,2.422,2.422,0,2.4191,2.42,2.4197,2.4203,2.4211,2.4209,2.4216,2.4217,2.4217,2.4221,2.4217,2.4221,2.4218,2.422,2.4218,2.4222,2.4223,2.4221,2.422,2.4221,2.4221,2.4222,2.4221,2.4221,2.4221,2.4221,2.4221,0,2.4209,2.4208,2.4217,2.4218,2.4218,2.4224,2.4224,2.4227,2.4226,2.4231,2.4232,2.423,2.4232,2.423,2.4232,2.423,2.4235,2.4234,2.4235,2.4234,2.4237,2.4237,2.4252,2.4253,2.4241,2.4241,2.4241,0,2.4221,2.4227,2.4227,2.423,2.4231,2.4235,2.4237,2.4234,2.4236,2.4237,2.424,2.4242,2.4243,2.4246,2.4244,2.4245,2.4243,2.4248,2.4243,2.4243,2.4241,2.4241,2.424,2.4249,2.425,2.425,2.425,0,2.4241,2.4239,2.4243,2.4245,2.4247,2.4249,2.425,2.4252,2.4249,2.4251,2.4253,2.4254,2.4255,2.4256,2.4256,2.4255,2.4251,2.4251,2.4252,2.4252,2.4252,2.4251,2.4236,2.4251,2.4251,2.4251,2.4251,2.4251,2.4255,2.4258,2.4259,2.4262,2.4262,2.4263,2.4265,2.4264,2.4266,2.4267,2.4265,2.4267,2.4265,2.4265,2.4264,2.4264,2.4262,2.4263,2.4263,2.4263,2.4263,2.4252,2.4264,2.4264,2.4264,2.4264,2.4264,0,2.4272,2.4272,2.4275,2.4276,2.4277,2.4274,2.4274,2.4275,2.4277,2.4277,2.4277,2.4278,2.4279,2.4276,2.4275,2.4276,2.4273,2.4275,2.4275,2.4274,2.4266,2.4265,2.4277,2.4277,2.4277,2.4277,2.4277,2.4277,2.4282,2.4287,2.4285,2.429,2.4289,2.4291,2.4291,2.4291,2.429,2.4292,2.4292,2.429,2.4287,2.4286,2.4285,2.4284,2.4283,2.4286,2.4284,2.4276,2.4275,2.4274,2.4273,2.4286,2.4286,2.4292,2.4292,2.4292]}]]